Tracking 19476 objects as of 17-Jan-2019
HD Live streaming from Space Station
objects crossing your sky now

RADUGA 28

Track RADUGA 28 now!
RADUGA 28 is classified as:


NORAD ID: 21821
Int'l Code: 1991-087A
Perigee: 35,757.3 km
Apogee: 35,782.6 km
Inclination: 15.0 °
Period: 1,434.9 minutes
Semi major axis: 42140 km
RCS: 5.0238 m2 (large)
Launch date: December 19, 1991
Source: Commonwealth of Independent States (former USSR) (CIS)
Launch site: TYURATAM MISSILE AND SPACE COMPLEX (TTMTR)
aabbcc
Your satellite tracking list
Your tracking list is empty




NASA's NSSDC Master Catalog

Two Line Element Set (TLE):
1 21821U 91087A   19016.62742216 +.00000011 +00000-0 +00000-0 0  9998
2 21821 015.0374 003.5185 0003005 017.0085 021.3319 01.00356650099167
Source of the keplerian elements: AFSPC